Dosis diarias (en J/m2) de radiaci�n solar incidente en superficie.
Lugar de muestreo: Estaci�n de Fotobiolog�a Playa Uni�n (EFPU) en Playa Uni�n, Chubut, Argentina (-43.311263, -65.040969).
Datos aportados al Sistema Nacional de Datos del Mar.
Fecha,Dosis PAR,DosisUV-A,DosisUV-B
2006-01-01,6318368.7,990328.4,30836.8
2006-01-02,7913440.4,1150131.5,33566.1
2006-01-03,11701709.6,1647862.7,48481.1
2006-01-04,8126629.6,1191134.1,34826.5
2006-01-05,7683699.4,1122917.9,33980.3
2006-01-06,11253231.2,1564178.7,44463.7
2006-01-07,6456925.6,945178.0,28479.2
2006-01-08,10459221.6,1497040.0,42982.8
2006-01-09,5403917.6,795711.0,22782.6
2006-01-10,13359220.8,1789519.9,51000.2
2006-01-11,9059980.8,1271407.4,36832.0
2006-01-12,13284746.4,1769111.3,50126.5
2006-01-13,13509461.2,1790341.3,51551.9
2006-01-14,10848478.7,1491314.4,44075.7
2006-01-15,11423988.1,1521635.8,41454.7
2006-01-16,12905486.5,1711969.5,48886.0
2006-01-17,12501605.3,1681150.8,48476.0
2006-01-18,13261727.7,1889650.6,55372.3
2006-01-19,12168678.0,1788929.6,53768.0
2006-01-20,13631063.6,1937423.3,55724.9
2006-01-21,13530709.4,1923725.0,57597.3
2006-01-22,11684829.8,1698363.1,49583.5
2006-01-23,10259200.3,1504710.5,45325.3
2006-01-24,11843544.6,1702080.0,50031.0
2006-01-25,12467013.9,1759446.5,51907.9
2006-01-26,13420417.6,1902490.8,55690.8
2006-01-27,13088448.1,1894554.1,55926.1
2006-01-28,12424308.4,1783839.2,53421.0
2006-01-29,12968375.1,1832642.7,53631.3
2006-01-30,12932846.3,1821186.6,53358.4
2006-01-31,12800265.7,1793988.4,52526.7
2006-02-01,10492377.0,1592751.6,42564.2
2006-02-02,10032315.9,1530092.5,40588.2
2006-02-03,10394593.9,1579201.9,42538.5
2006-02-04,6318364.8,969001.3,25222.5
2006-02-05,6214250.7,966954.9,24560.2
2006-02-06,9771302.6,1473051.6,39466.4
2006-02-07,7605188.3,1164331.9,30829.3
2006-02-08,9904534.4,1443923.4,36802.8
2006-02-09,9144923.9,1352483.3,36181.9
2006-02-10,11451826.0,1526543.0,43330.9
2006-02-11,11090338.3,1479229.3,41603.1
2006-02-12,10019812.8,1328905.5,38377.7
2006-02-13,11124501.0,1434361.0,41963.1
2006-02-14,9791593.1,1275534.5,37108.2
2006-02-15,9511491.1,1232222.8,35409.6
2006-02-16,9484343.5,1298307.4,36762.2
2006-02-17,10468893.9,1401830.7,39320.0
2006-02-18,11088184.6,1472655.0,41469.2
2006-02-19,7574295.2,1040643.1,28564.4
2006-02-20,5712982.8,859843.7,24900.7
2006-02-21,3274801.6,539045.6,15757.7
2006-02-22,1405663.6,240454.1,7346.3
2006-02-23,6474722.8,915062.1,24449.6
2006-02-24,10239297.5,1363508.3,38497.3
2006-02-25,8620636.9,1195434.7,33014.2
2006-02-26,4405034.8,616060.6,15342.5
2006-02-27,9332987.1,1247630.6,33098.6
2006-02-28,7229121.8,1010548.7,26422.4
2006-03-01,9989045.1,1201883.3,29111.2
2006-03-02,9964916.4,1194533.1,29621.4
2006-03-03,9610954.2,1148082.8,28472.5
2006-03-04,9556131.3,1141221.5,28200.9
2006-03-05,9133717.8,1111366.0,27944.2
2006-03-06,8608385.2,1038742.2,24839.0
2006-03-07,4813335.7,605749.0,14991.4
2006-03-08,4950006.9,621282.3,14581.7
2006-03-09,9100367.5,1080164.9,25643.1
2006-03-10,9012691.3,1063538.8,25372.6
2006-03-11,8560376.9,1012542.7,24087.2
2006-03-12,7002250.7,856978.9,20161.9
2006-03-13,7709117.3,928005.1,22002.1
2006-03-14,8558990.7,989580.7,22712.9
2006-03-15,4077825.0,525834.4,12835.4
2006-03-16,8849631.5,1059728.0,24026.7
2006-03-17,8656408.1,1030064.0,22341.9
2006-03-18,8469937.1,1017877.3,23595.2
2006-03-20,8223782.9,1002755.3,21921.7
2006-03-21,8135718.7,959988.0,21287.5
2006-03-22,7091130.5,868144.3,19857.9
2006-03-23,6388949.5,775259.5,17822.7
2006-03-24,6951513.7,832036.1,18051.7
2006-03-25,7687315.1,893360.3,18816.4
2006-03-26,5745827.3,708203.8,15543.7
2006-03-27,6672319.0,802099.9,16749.8
2006-03-28,7362334.9,855052.3,18273.7
2006-03-29,7271795.5,845103.7,18003.7
2006-03-30,5534641.3,697760.3,14980.5
2006-03-31,6476558.7,762405.7,15850.0
2006-04-01,6475408.7,750460.8,15575.0
2006-04-02,6629137.7,763780.5,15783.0
2006-04-03,6304483.4,718589.0,14769.4
2006-04-04,6506481.8,728481.7,14323.2
2006-04-05,5944647.9,668738.1,13105.3
2006-04-06,5033352.0,617443.2,12400.9
2006-04-07,4685561.3,622868.0,12534.2
2006-04-08,5906575.7,738230.6,14718.6
2006-04-09,5127500.9,661548.6,13224.5
2006-04-10,5944049.8,730587.5,14451.6
2006-04-11,1868480.4,278766.1,5853.8
2006-04-12,2335480.0,342978.6,6858.2
2006-04-13,3565450.2,490218.5,9287.6
2006-04-14,2531455.9,341003.9,6001.2
2006-04-15,5602070.5,667962.3,11960.0
2006-04-16,5638279.5,659775.2,11907.7
2006-04-17,5066987.8,600887.3,10921.9
2006-04-18,2302450.9,323125.1,6226.2
2006-04-19,1233207.1,186274.7,3612.2
2006-04-20,3826938.0,496894.1,8659.8
2006-04-21,4400287.7,544987.5,9578.5
2006-04-22,5025483.4,592025.3,10019.2
2006-04-23,2422583.9,334259.6,6271.3
2006-04-24,2518510.2,352942.7,6045.3
2006-04-25,4529963.5,541509.4,9247.1
2006-04-26,3001355.2,405963.2,7479.1
2006-04-27,4043510.9,490805.8,8568.5
2006-04-28,4031256.6,490096.2,8270.6
2006-04-29,4256138.7,501202.9,7857.2
2006-04-30,2871768.7,351874.4,5587.7
2006-05-01,4446158.2,501038.0,7903.0
2006-05-02,4231205.7,476839.5,7370.6
2006-05-03,4115168.3,463008.9,7156.1
2006-05-04,1670596.6,239929.9,3679.8
2006-05-05,3840416.2,439938.4,6623.0
2006-05-06,3863580.5,433472.1,6469.1
2006-05-07,3850413.8,428704.8,6465.1
2006-05-08,3645104.1,410761.6,6292.3
2006-05-09,3178916.9,370028.0,5576.1
2006-05-10,2709609.5,349743.0,5111.5
2006-05-11,2240951.6,298585.4,4362.3
2006-05-12,2679406.6,342009.7,5066.8
2006-05-13,3388892.3,404406.5,5991.5
2006-05-14,3114544.7,377073.7,5492.1
2006-05-15,1086369.3,163026.0,2383.5
2006-05-16,3311528.2,382971.5,5133.6
2006-05-17,3194651.8,371954.2,4870.5
2006-05-18,3326044.4,381038.5,4912.4
2006-05-19,3170573.4,368413.1,4680.1
2006-05-20,3192310.7,369382.0,4468.1
2006-05-21,3081158.6,359228.3,4501.7
2006-05-22,3183612.6,358768.3,4462.8
2006-05-23,1413916.4,193341.5,2397.3
2006-05-24,636211.2,98262.7,1201.6
2006-05-25,1610990.0,212589.5,2782.9
2006-05-26,1987498.1,258798.0,3048.5
2006-05-27,2274232.7,284926.6,3499.0
2006-05-28,2184532.3,273820.8,3230.3
2006-05-29,2809283.2,318238.3,3561.0
2006-05-30,2830872.4,313990.3,3667.7
2006-05-31,1351514.7,184940.3,2279.6
2006-06-01,1615723.6,238355.2,2714.5
2006-06-02,773240.4,113379.1,1382.5
2006-06-03,1916615.8,240803.2,2740.4
2006-06-04,2595795.5,293438.9,3170.6
2006-06-05,1627587.3,209119.9,2530.3
2006-06-06,2306390.0,276424.8,3084.8
2006-06-07,936981.4,132401.6,1429.0
2006-06-08,2311027.3,270399.7,2916.0
2006-06-09,2633586.4,296639.7,3202.3
2006-06-10,2577582.3,292057.2,3167.1
2006-06-11,2333679.6,279498.2,3119.0
2006-06-12,1639813.6,221584.4,2513.5
2006-06-13,2554224.8,287379.0,3135.5
2006-06-14,2573394.0,288890.3,3112.3
2006-06-15,2337895.1,272654.2,2994.1
2006-06-16,1179520.2,159585.0,1724.5
2006-06-17,924863.2,128401.2,1304.6
2006-06-18,849840.2,116656.1,1171.3
2006-06-19,2682480.5,286471.8,2920.2
2006-06-20,2542387.4,286134.3,2995.1
2006-06-21,1750147.8,218164.0,2096.0
2006-06-22,2397846.8,278897.8,2958.9
2006-06-23,1002103.4,146453.5,1646.5
2006-06-24,1083911.5,157121.6,1853.3
2006-06-25,966872.5,137905.0,1559.5
2006-06-26,793257.2,131169.2,1400.8
2006-06-27,771112.0,121372.9,1338.5
2006-06-28,913151.1,126263.9,1317.1
2006-06-29,961799.4,155960.0,1649.3
2006-06-30,2652551.2,289770.9,3063.1
2006-07-01,1588290.6,205779.8,2252.2
2006-07-02,2489914.1,283714.3,3137.5
2006-07-03,1976378.4,245314.4,2669.0
2006-07-04,2564742.0,288162.8,3109.8
2006-07-05,2097696.9,258062.1,2948.9
2006-07-06,1946316.7,233985.0,2483.7
2006-07-07,601150.5,101316.1,1011.1
2006-07-08,2786972.2,303151.5,3224.5
2006-07-09,2906551.6,316232.2,3526.7
2006-07-10,1658789.0,228714.4,2499.5
2006-07-11,1100040.5,156912.0,1729.5
2006-07-12,2879053.8,335110.2,3453.1
2006-07-13,3012858.9,326212.5,3557.2
2006-07-14,3073978.4,331446.7,3870.8
2006-07-15,1335112.8,205763.1,2172.4
2006-07-16,1982703.1,262798.3,3118.4
2006-07-17,1145514.3,175852.8,2172.0
2006-07-18,2063318.3,244405.7,2672.3
2006-07-19,2339661.5,284978.8,3525.7
2006-07-20,2903830.2,346588.2,4071.4
2006-07-21,3166890.3,374586.9,4158.9
2006-07-22,2946024.0,344893.2,4142.5
2006-07-23,1012722.0,143181.7,1712.5
2006-07-24,1719697.6,262608.9,3091.4
2006-07-25,1410750.7,205807.2,2434.0
2006-07-26,879378.1,144279.6,1620.7
2006-07-27,319064.6,70300.3,625.0
2006-07-28,1593293.1,232457.4,2757.4
2006-07-29,2375376.3,303312.7,3993.9
2006-07-30,2641118.3,325120.4,4083.7
2006-07-31,3797100.4,434997.9,5305.2
2006-08-01,2962659.8,353935.0,4859.7
2006-08-02,1061433.3,175233.1,2421.6
2006-08-03,2269566.2,287913.7,4186.1
2006-08-04,3231247.3,395621.9,5091.3
2006-08-05,4018614.1,460579.5,5953.6
2006-08-06,874111.4,131988.7,1981.9
2006-08-07,3085012.9,388696.3,5239.1
2006-08-08,3440854.1,429120.3,5791.0
2006-08-09,3180180.8,398043.5,5305.1
2006-08-10,2382504.7,321151.7,4614.2
2006-08-11,4228834.0,498901.9,6802.8
2006-08-12,4426524.5,502146.6,7079.9
2006-08-13,668364.4,102600.6,1449.8
2006-08-14,1066386.6,196440.9,2795.6
2006-08-15,3858524.5,503988.1,7640.8
2006-08-16,4049150.6,492708.7,7800.3
2006-08-17,4978224.2,589204.7,9394.9
2006-08-18,4413816.8,530380.1,9038.6
2006-08-19,3028921.1,394881.3,6943.9
2006-08-20,5075754.3,590450.5,9782.3
2006-08-21,4477504.1,543864.2,9539.5
2006-08-22,2305097.7,323691.0,6130.8
2006-08-23,4173092.0,504409.4,8914.8
2006-08-24,1902601.0,286806.7,4954.3
2006-08-25,2066989.9,293284.4,5050.2
2006-08-26,5610346.5,637319.8,10368.7
2006-08-27,5254657.4,617125.4,10385.9
2006-08-28,5692717.3,660747.0,11340.8
2006-08-29,4765738.4,581335.3,10267.5
2006-08-30,4662525.5,569305.0,10374.5
2006-08-31,5741338.1,685656.1,11568.8
2006-09-01,6080561.4,720809.0,11870.5
2006-09-02,6005631.9,705892.3,11864.5
2006-09-03,5605685.9,681068.9,12034.0
2006-09-04,6150335.8,729167.8,13450.3
2006-09-05,5993877.8,719242.1,13507.7
2006-09-06,5363099.4,653982.7,12002.4
2006-09-07,6368476.5,777984.5,13889.8
2006-09-08,6392363.3,762539.8,14706.9
2006-09-09,2565197.8,351671.2,6988.8
2006-09-10,6414910.5,778282.2,14625.0
2006-09-11,6992082.1,835418.5,16289.2
2006-09-12,7092331.4,852923.2,15617.2
2006-09-13,5602813.9,728405.6,14045.7
2006-09-14,5782376.5,746004.8,14887.1
2006-09-15,6996640.9,880645.2,17525.5
2006-09-16,7495725.0,903079.0,18385.0
2006-09-17,7648724.5,923295.2,19863.1
2006-09-18,7207179.6,898963.3,20323.6
2006-09-19,2651661.5,385574.2,7726.8
2006-09-20,4017649.8,535247.5,11550.4
2006-09-21,6888850.0,855090.3,18392.3
2006-09-22,3554501.8,520524.8,11234.7
2006-09-23,5001135.2,663115.0,14803.7
2006-09-24,4665117.6,647765.8,14664.2
2006-09-25,4042057.9,553349.7,12530.7
2006-09-26,8022903.0,981942.6,20896.7
2006-09-27,8626471.5,1059694.7,22601.5
2006-09-28,6208881.7,799094.1,18068.8
2006-09-29,3259257.8,484163.0,10615.3
2006-09-30,8464702.2,1020878.8,22853.2
2006-10-01,6311505.2,824831.9,18417.0
2006-10-02,7079472.2,909553.0,20122.7
2006-10-03,3648705.3,494563.2,11283.6
2006-10-04,1507306.8,240617.8,5505.3
2006-10-05,6639512.8,882318.1,20633.5
2006-10-06,7571182.1,964220.9,22576.2
2006-10-07,9118895.6,1118009.1,25269.1
2006-10-08,6556370.7,842379.2,20155.9
2006-10-09,6031144.4,803991.3,19025.8
2006-10-10,9761765.8,1194816.8,27992.5
2006-10-11,8234237.5,1050591.5,25732.8
2006-10-12,5485349.7,760634.7,17393.5
2006-10-13,7769092.1,998330.3,24465.9
2006-10-14,9143449.5,1142982.0,26202.9
2006-10-15,9589128.8,1190354.0,27165.7
2006-10-16,10647796.9,1306799.7,30217.6
2006-10-17,10598009.0,1318751.1,30192.9
2006-10-18,10338799.1,1285357.0,30714.7
2006-10-19,8818230.9,1120294.5,28106.1
2006-10-20,9392914.1,1197625.6,29600.5
2006-10-21,9252978.1,1203572.3,29088.1
2006-10-22,5931030.1,803002.2,20341.5
2006-10-23,9822983.4,1270720.2,31517.0
2006-10-24,9971752.7,1282163.2,31142.0
2006-10-25,11373064.2,1407289.7,34281.6
2006-10-26,11083508.8,1389332.1,34338.6
2006-10-27,5014408.3,701320.1,17609.8
2006-10-28,10661078.4,1333573.5,32603.3
2006-10-29,11732425.3,1454298.1,35495.8
2006-10-31,11365042.7,1428327.3,35543.9
2006-11-01,6676073.3,900758.3,22497.9
2006-11-02,9607898.4,1227324.6,31399.5
2006-11-03,10324886.6,1343219.3,33350.9
2006-11-04,10737068.9,1368308.5,34881.3
2006-11-05,10069417.5,1283155.7,32879.5
2006-11-06,12265228.7,1522089.3,37476.0
2006-11-07,12286701.6,1517475.1,37450.1
2006-11-08,11748384.1,1473169.2,37078.4
2006-11-09,9538816.9,1244639.2,31305.1
2006-11-10,11390516.1,1419890.7,35720.5
2006-11-11,10243665.5,1297376.8,33686.2
2006-11-12,6751108.3,880986.0,22472.6
2006-11-13,12568552.4,1559660.0,38787.3
2006-11-14,9101741.9,1187334.1,31489.0
2006-11-15,10457880.8,1312236.2,33174.2
2006-11-16,12401817.9,1533529.1,39081.6
2006-11-17,12604628.5,1553470.5,39594.8
2006-11-18,12702188.9,1566430.3,40127.2
2006-11-19,11837273.3,1469699.6,38138.0
2006-11-20,9837621.2,1264250.1,32390.2
2006-11-21,10735080.9,1396152.8,36134.6
2006-11-22,12223771.0,1541839.1,38964.9
2006-11-23,11820651.2,1486133.4,37172.0
2006-11-24,12555117.8,1583338.8,40700.2
2006-11-25,11522428.9,1469060.1,37068.2
2006-11-26,13554816.2,1691412.3,43597.6
2006-11-27,11894529.1,1499607.8,38099.5
2006-11-28,12044099.2,1563942.1,40022.0
2006-11-29,13038572.3,1641933.4,43473.2
2006-11-30,10152400.2,1358910.5,35583.8
2006-12-01,12416694.6,1773010.6,45891.7
2006-12-02,11128920.1,1597964.7,42830.1
2006-12-03,12123040.5,1680118.6,43922.8
2006-12-04,10742814.9,1497125.0,38567.1
2006-12-05,13389662.6,1830968.6,48070.5
2006-12-06,13596121.1,1844006.0,48698.8
2006-12-07,13506829.4,1861839.0,48537.6
2006-12-08,13466895.8,1823452.9,47475.1
2006-12-09,13024606.6,1765963.0,45976.4
2006-12-10,11426791.3,1566979.8,41842.2
2006-12-11,12701449.2,1731109.5,46231.0
2006-12-12,12569058.5,1707493.7,45682.2
2006-12-13,10241907.0,1430606.4,38144.0
2006-12-14,13267270.8,1783254.4,45973.1
2006-12-15,6351076.8,942032.7,25723.4
2006-12-16,11372339.5,1510649.4,38809.9
2006-12-17,9733483.1,1342275.5,35966.1
2006-12-18,12903191.8,1715118.7,44741.2
2006-12-19,8493533.8,1134107.4,29235.0
2006-12-20,11608352.2,1543262.0,40257.2
2006-12-21,12509650.9,1617543.4,41209.5
2006-12-22,7456639.2,1067985.8,29199.2
2006-12-23,12201211.3,1630051.6,42299.2
2006-12-24,12868471.6,1696076.2,43797.1
2006-12-25,12207798.0,1590133.7,40794.2
2006-12-26,6899401.3,1007982.4,27105.7
2006-12-27,13830874.2,1856510.0,47635.0
2006-12-28,10770882.6,1537453.4,40767.1
2006-12-29,4959933.7,735224.3,18509.2
2006-12-30,12885122.2,1777176.8,47602.2
2006-12-31,14102071.8,1925376.0,51951.9
